Weather History for Lee's Summit, MO

Change the Weather History Date:

Tuesday, March 26, 2013

  Actual Average (KMKC) Record (KMKC)
Temperature  
Mean Temperature 27 °F -  
Max Temperature 36 °F 58 °F 82 °F (2012)
Min Temperature 19 °F 38 °F 19 °F (2001)
Degree Days  
Heating Degree Days 38    
Moisture  
Dew Point 19 °F    
Average Humidity 68    
Maximum Humidity 92    
Minimum Humidity 50    
Precipitation  
Precipitation 0.00 in - - ()
Sea Level Pressure  
Sea Level Pressure 30.37 in    
Wind  
Wind Speed 5 mph (WSW)    
Max Wind Speed 9 mph    
Max Gust Speed -    
Visibility 10 miles    
Events      
Averages and records for this station are not official NWS values.
T = Trace of Precipitation, MM = Missing Value Source: NWS Daily Summary

Daily Weather History Graph

Daily Weather History Graph

Search for Another Location

Airport:

Trip Planner

Search our weather history database for the weather conditions in past years. The results will help you decide how hot, cold, wet, or windy it might be!

Date:

Astronomy

Mar. 26, 2013 Rise Set
Actual Time 7:11 AM CDT 7:35 PM CDT
Civil Twilight 6:44 AM CDT 8:02 PM CDT
Nautical Twilight 6:13 AM CDT 8:33 PM CDT
Astronomical Twilight 5:40 AM CDT 9:05 PM CDT
Moon 7:13 PM CDT (3/26) 6:27 AM CDT (3/26)
Length of Visible Light 13h 17m
Length of Day
12h 24m
Waxing Gibbous, 99% of the Moon is Illuminated
Mar 26
Waxing Gibbous
Mar 27
Full
Apr 2
Last Quarter
Apr 10
New
Apr 18
First Quarter

Hourly Weather History & Observations

Time (CDT) Temp. Windchill Dew Point Humidity Pressure Visibility Wind Dir Wind Speed Gust Speed Precip Events Conditions
12:53 AM 26.1 °F 18.4 °F 19.0 °F 75% 30.36 in 10.0 mi NW 6.9 mph - N/A   Clear
1:53 AM 25.0 °F 15.5 °F 18.0 °F 75% 30.36 in 10.0 mi WNW 9.2 mph - N/A   Clear
2:53 AM 24.1 °F 17.0 °F 19.0 °F 81% 30.36 in 10.0 mi WNW 5.8 mph - N/A   Clear
3:53 AM 23.0 °F 17.0 °F 19.0 °F 85% 30.36 in 10.0 mi West 4.6 mph - N/A   Clear
4:53 AM 21.9 °F 15.7 °F 19.0 °F 89% 30.36 in 10.0 mi West 4.6 mph - N/A   Clear
5:53 AM 21.0 °F 13.4 °F 18.0 °F 88% 30.36 in 10.0 mi West 5.8 mph - N/A   Clear
6:53 AM 21.0 °F 14.6 °F 18.0 °F 88% 30.38 in 10.0 mi West 4.6 mph - N/A   Clear
7:53 AM 19.9 °F 13.4 °F 18.0 °F 92% 30.40 in 10.0 mi West 4.6 mph - N/A   Clear
8:53 AM 24.1 °F 18.2 °F 19.0 °F 81% 30.42 in 10.0 mi West 4.6 mph - N/A   Clear
9:53 AM 28.0 °F 21.7 °F 19.9 °F 72% 30.43 in 10.0 mi NW 5.8 mph - N/A   Clear
11:53 AM 33.1 °F - 19.9 °F 59% 30.43 in 10.0 mi Calm Calm - N/A   Clear
12:53 PM 34.0 °F - 19.0 °F 54% 30.42 in 10.0 mi Calm Calm - N/A   Mostly Cloudy
1:53 PM 34.0 °F 28.8 °F 19.0 °F 54% 30.40 in 10.0 mi Variable 5.8 mph - N/A   Mostly Cloudy
2:53 PM 35.1 °F 28.6 °F 18.0 °F 50% 30.39 in 10.0 mi SW 8.1 mph - N/A   Clear
3:53 PM 35.1 °F - 19.9 °F 54% 30.38 in 10.0 mi Calm Calm - N/A   Clear
4:53 PM 35.1 °F 31.0 °F 19.0 °F 52% 30.35 in 10.0 mi SW 4.6 mph - N/A   Clear
5:53 PM 35.1 °F 29.3 °F 19.0 °F 52% 30.34 in 10.0 mi SW 6.9 mph - N/A   Clear
6:53 PM 34.0 °F 28.0 °F 18.0 °F 52% 30.35 in 10.0 mi SSW 6.9 mph - N/A   Clear
7:53 PM 32.0 °F 27.5 °F 19.0 °F 59% 30.35 in 10.0 mi SSW 4.6 mph - N/A   Clear
8:53 PM 30.0 °F 26.5 °F 19.0 °F 64% 30.35 in 10.0 mi SW 3.5 mph - N/A   Clear
9:53 PM 28.9 °F 25.2 °F 19.0 °F 67% 30.36 in 10.0 mi SW 3.5 mph - N/A   Clear
10:53 PM 28.0 °F 24.2 °F 18.0 °F 66% 30.37 in 10.0 mi SW 3.5 mph - N/A   Clear
11:53 PM 30.0 °F - 18.0 °F 61% 30.34 in 10.0 mi Calm Calm - N/A   Clear